Total_Precipitation_Accumulation
0.00 0.01 0.02 0.04 0.05 0.04 0.01 0.01 0.02 0.02 0.03 0.01 0.00 0.00 0.00 0.00 0.00 0.00 0.00 0.00 0.00 0.00 0.01 0.01 0.01 0.01 0.02 0.02 0.03 0.03 0.04 0.04 0.05 0.05 0.06 0.06 0.06 0.06 0.06 0.07 0.08 0.11 0.14 0.15
0.00 0.01 0.02 0.04 0.07 0.03 0.01 0.00 0.00 0.00 0.00 0.00 0.00 0.01 0.02 0.02 0.01 0.02 0.02 0.03 0.04 0.04 0.05 0.04 0.04 0.04 0.04 0.04 0.04 0.05 0.05 0.05 0.04 0.05 0.05 0.06 0.06 0.06 0.06 0.08 0.11 0.16 0.19 0.19
0.00 0.01 0.01 0.06 0.05 0.02 0.01 0.00 0.00 0.01 0.02 0.02 0.03 0.05 0.08 0.11 0.12 0.13 0.12 0.10 0.07 0.05 0.03 0.02 0.01 0.01 0.01 0.01 0.01 0.02 0.03 0.03 0.04 0.05 0.05 0.06 0.06 0.07 0.09 0.12 0.16 0.21 0.24 0.26
0.00 0.00 0.04 0.04 0.01 0.01 0.01 0.01 0.01 0.03 0.05 0.09 0.12 0.17 0.23 0.27 0.21 0.11 0.06 0.03 0.01 0.00 0.00 0.00 0.00 0.00 0.01 0.01 0.01 0.02 0.02 0.03 0.04 0.06 0.07 0.08 0.11 0.13 0.17 0.20 0.22 0.26 0.29 0.32
0.00 0.01 0.02 0.01 0.02 0.03 0.03 0.02 0.05 0.10 0.15 0.18 0.18 0.13 0.09 0.06 0.03 0.01 0.01 0.00 0.00 0.00 0.00 0.00 0.01 0.01 0.01 0.01 0.02 0.02 0.04 0.07 0.09 0.11 0.13 0.16 0.20 0.24 0.28 0.31 0.30 0.31 0.32 0.37
0.01 0.01 0.03 0.03 0.04 0.07 0.07 0.12 0.13 0.12 0.09 0.05 0.02 0.01 0.00 0.00 0.00 0.00 0.00 0.00 0.00 0.00 0.00 0.01 0.01 0.02 0.02 0.02 0.03 0.04 0.05 0.08 0.11 0.17 0.23 0.26 0.30 0.34 0.38 0.40 0.39 0.39 0.37 0.40
0.01 0.01 0.02 0.04 0.03 0.03 0.06 0.07 0.03 0.01 0.01 0.00 0.00 0.00 0.00 0.00 0.00 0.00 0.00 0.00 0.00 0.00 0.00 0.01 0.02 0.03 0.04 0.06 0.06 0.06 0.07 0.09 0.12 0.18 0.28 0.31 0.36 0.41 0.46 0.47 0.48 0.49 0.46 0.46
0.01 0.03 0.02 0.02 0.01 0.00 0.00 0.00 0.00 0.00 0.00 0.00 0.00 0.00 0.00 0.00 0.00 0.00 0.00 0.00 0.00 0.00 0.00 0.01 0.03 0.06 0.08 0.10 0.09 0.10 0.12 0.14 0.15 0.22 0.30 0.32 0.42 0.46 0.52 0.56 0.58 0.59 0.60 0.58
0.01 0.01 0.00 0.00 0.00 0.00 0.00 0.00 0.00 0.00 0.00 0.00 0.00 0.00 0.00 0.00 0.00 0.00 0.00 0.00 0.00 0.00 0.01 0.02 0.04 0.08 0.12 0.13 0.13 0.15 0.17 0.17 0.21 0.25 0.37 0.52 0.56 0.53 0.57 0.62 0.62 0.62 0.67 0.70
0.00 0.00 0.00 0.00 0.00 0.00 0.00 0.00 0.00 0.00 0.00 0.00 0.00 0.00 0.00 0.00 0.00 0.00 0.00 0.00 0.00 0.01 0.02 0.04 0.05 0.08 0.12 0.15 0.19 0.22 0.22 0.21 0.23 0.30 0.43 0.67 0.80 0.74 0.68 0.68 0.67 0.68 0.66 0.67
0.00 0.00 0.00 0.00 0.00 0.00 0.00 0.00 0.00 0.00 0.00 0.00 0.00 0.00 0.00 0.00 0.00 0.00 0.00 0.01 0.01 0.03 0.05 0.06 0.07 0.09 0.13 0.18 0.25 0.28 0.26 0.24 0.25 0.32 0.46 0.68 0.85 0.85 0.71 0.69 0.66 0.66 0.65 0.65
0.00 0.00 0.00 0.00 0.00 0.00 0.00 0.00 0.00 0.00 0.00 0.00 0.00 0.00 0.00 0.00 0.00 0.01 0.01 0.03 0.04 0.06 0.08 0.10 0.12 0.15 0.17 0.22 0.29 0.35 0.34 0.29 0.30 0.35 0.46 0.66 0.89 0.96 0.76 0.58 0.56 0.53 0.48 0.46
0.00 0.00 0.00 0.00 0.00 0.00 0.00 0.00 0.00 0.00 0.00 0.00 0.00 0.00 0.00 0.00 0.01 0.02 0.04 0.07 0.11 0.14 0.16 0.19 0.21 0.21 0.21 0.27 0.34 0.38 0.39 0.35 0.34 0.37 0.42 0.54 0.79 1.04 1.08 0.81 0.59 0.50 0.38 0.28
0.00 0.00 0.00 0.00 0.00 0.00 0.00 0.00 0.00 0.00 0.00 0.00 0.00 0.00 0.00 0.01 0.02 0.04 0.09 0.15 0.21 0.25 0.26 0.28 0.26 0.24 0.25 0.32 0.35 0.36 0.36 0.33 0.32 0.33 0.35 0.44 0.66 0.94 1.14 1.11 0.93 0.67 0.38 0.21
0.00 0.00 0.00 0.00 0.00 0.00 0.00 0.00 0.00 0.00 0.00 0.00 0.00 0.00 0.01 0.02 0.05 0.10 0.16 0.27 0.37 0.37 0.34 0.32 0.29 0.27 0.29 0.34 0.35 0.33 0.32 0.29 0.26 0.27 0.29 0.35 0.53 0.79 1.00 1.08 1.02 0.90 0.60 0.27
0.00 0.00 0.00 0.00 0.00 0.00 0.00 0.01 0.01 0.01 0.01 0.01 0.01 0.02 0.03 0.05 0.09 0.14 0.22 0.38 0.54 0.55 0.46 0.39 0.34 0.32 0.33 0.35 0.34 0.29 0.28 0.22 0.18 0.20 0.24 0.28 0.40 0.63 0.89 1.03 0.98 0.92 0.74 0.38
0.01 0.01 0.01 0.01 0.01 0.01 0.01 0.01 0.01 0.01 0.02 0.02 0.03 0.04 0.06 0.11 0.16 0.23 0.35 0.45 0.51 0.50 0.45 0.43 0.38 0.35 0.34 0.35 0.34 0.29 0.26 0.21 0.14 0.14 0.23 0.29 0.35 0.53 0.78 0.95 0.91 0.81 0.67 0.34
0.01 0.01 0.01 0.02 0.02 0.02 0.01 0.01 0.01 0.02 0.03 0.04 0.06 0.07 0.10 0.18 0.30 0.45 0.57 0.61 0.56 0.43 0.37 0.39 0.36 0.31 0.30 0.28 0.26 0.24 0.23 0.23 0.20 0.21 0.27 0.30 0.34 0.51 0.72 0.86 0.80 0.71 0.58 0.32
0.03 0.03 0.03 0.02 0.02 0.02 0.01 0.01 0.01 0.02 0.03 0.08 0.10 0.08 0.11 0.17 0.32 0.50 0.62 0.74 0.77 0.63 0.43 0.32 0.29 0.25 0.23 0.19 0.20 0.20 0.20 0.21 0.21 0.23 0.27 0.26 0.35 0.52 0.65 0.70 0.66 0.58 0.45 0.29
0.03 0.03 0.02 0.02 0.02 0.01 0.01 0.01 0.01 0.02 0.05 0.10 0.10 0.07 0.09 0.16 0.31 0.51 0.64 0.74 0.80 0.72 0.53 0.36 0.25 0.19 0.15 0.12 0.13 0.17 0.19 0.22 0.24 0.26 0.27 0.33 0.42 0.53 0.57 0.53 0.47 0.41 0.33 0.26
0.01 0.01 0.01 0.01 0.01 0.00 0.00 0.00 0.01 0.03 0.07 0.09 0.08 0.06 0.10 0.16 0.28 0.48 0.77 0.93 0.82 0.68 0.53 0.40 0.27 0.17 0.12 0.11 0.11 0.14 0.17 0.19 0.24 0.29 0.31 0.36 0.43 0.48 0.47 0.39 0.29 0.23 0.21 0.20
0.00 0.00 0.00 0.00 0.00 0.00 0.00 0.00 0.01 0.03 0.05 0.06 0.05 0.07 0.11 0.18 0.29 0.40 0.59 0.87 0.94 0.86 0.61 0.41 0.29 0.18 0.13 0.12 0.11 0.12 0.13 0.15 0.19 0.23 0.26 0.28 0.32 0.35 0.33 0.25 0.17 0.14 0.13 0.15
0.00 0.00 0.00 0.00 0.00 0.00 0.00 0.00 0.00 0.02 0.03 0.04 0.05 0.07 0.12 0.20 0.32 0.56 0.67 0.68 0.78 0.88 0.66 0.44 0.35 0.25 0.16 0.13 0.13 0.13 0.13 0.16 0.22 0.24 0.20 0.20 0.20 0.22 0.22 0.16 0.12 0.10 0.11 0.13
0.00 0.00 0.00 0.00 0.00 0.00 0.00 0.00 0.00 0.01 0.01 0.01 0.02 0.03 0.08 0.17 0.25 0.39 0.57 0.67 0.71 0.77 0.60 0.43 0.34 0.25 0.19 0.15 0.17 0.19 0.22 0.28 0.29 0.22 0.16 0.15 0.13 0.13 0.15 0.13 0.10 0.09 0.12 0.13
0.00 0.00 0.00 0.01 0.01 0.01 0.01 0.01 0.01 0.01 0.01 0.01 0.02 0.03 0.06 0.12 0.25 0.38 0.50 0.60 0.73 0.78 0.64 0.48 0.36 0.31 0.26 0.23 0.25 0.32 0.37 0.32 0.25 0.19 0.15 0.12 0.11 0.11 0.10 0.10 0.11 0.11 0.13 0.12
0.01 0.01 0.01 0.01 0.01 0.01 0.01 0.02 0.02 0.02 0.02 0.03 0.04 0.06 0.09 0.13 0.20 0.30 0.41 0.49 0.57 0.67 0.59 0.41 0.27 0.25 0.24 0.27 0.31 0.34 0.31 0.25 0.20 0.18 0.17 0.15 0.13 0.11 0.09 0.10 0.10 0.10 0.09 0.07
0.02 0.02 0.02 0.02 0.02 0.03 0.03 0.04 0.05 0.05 0.07 0.09 0.13 0.17 0.18 0.19 0.22 0.28 0.34 0.38 0.41 0.42 0.38 0.28 0.18 0.16 0.16 0.16 0.19 0.21 0.22 0.22 0.21 0.21 0.20 0.19 0.17 0.15 0.12 0.10 0.10 0.10 0.08 0.06